Location: Ash Shall?l al Awwal
(24.0167°N, 32.8667°E)
Time: 04:56:38
(UTC+00:00)

Cosmos 1933 Rocket - Pass Details

Date: 02 March 2021
Orbit: 607 x 629 km, 82.5° (Epoch: 12 April)

Event Time Altitude Azimuth Distance (km) Brightness Sun altitude
Rises 16:55:49 0° 186° (S) 2,849 7.1 -15.4°
Reaches altitude 10° 16:58:01 10° 187° (S) 1,949 6.2 -15.9°
Maximum altitude 17:02:20 81° 274° (W) 619 3.6 -16.9°
Drops below altitude 10° 17:06:41 10° 3° (N) 1,967 6.1 -17.9°
Sets 17:08:55 0° 4° (N) 2,877 7.0 -18.4°
